Location: Centerville
(32.8776°N, 96.6203°W)
Time: 00:17:37
(UTC+00:00)

CZ-4C R/B - Pass Details

Date: 17 June 2021
Orbit: 606 x 1396 km, 63.4° (Epoch: 01 August)

Event Time Altitude Azimuth Distance (km) Brightness Sun altitude
Exits shadow 10:04:40 20° 221° (SW) 1,487 2.9 -13.6°
Maximum altitude 10:07:46 69° 302° (WNW) 750 1.9 -13.1°
Drops below altitude 10° 10:13:05 10° 26° (NNE) 2,379 5.6 -12.2°
Sets 10:15:47 0° 28° (NNE) 3,438 6.7 -11.7°
